{"data":{"norad_id":62824,"epoch":"2026-05-24T21:20:14.762400Z","epoch_age_seconds":78429,"freshness":"FRESH","line1":"1 62824U 25018U   26144.88905975  .00018560  00000+0  63726-3 0  9992","line2":"2 62824  53.1592 315.7448 0001108  83.0668 277.0459 15.30195921 74845","mean_motion":15.30195921,"eccentricity":0.0001108,"inclination_deg":53.1592,"raan_deg":315.7448,"arg_perigee_deg":83.0668,"mean_anomaly_deg":277.0459,"bstar":0.00063726,"rev_number":7484,"period_min":94.105596560403,"perigee_km":474.46789584639,"apogee_km":475.98660136388,"semimajor_km":6853.3642486051,"source":"CELESTRAK","updated_at":"2026-05-25T13:38:19.776624Z"}}